Main page
METAR-TAF:

METAR-TAF

Airports :

Wahoo Municipal Airport

Wahoo, Nebraska, United States

latitude: 41-14-26N, longitude: 096-35-40W, elevation: 1223 ft

Current weather observation

The report was made 21 minutes ago, at 15:15 UTC
Wind 12 mph from the North/Northwest with gusts up to 17 mph
Temperature 72°F
Humidity 35%
Pressure 30.22 in. Hg
Visibility: 10 miles
Clear sky

METAR: KAHQ 291515Z AUTO 33010G15KT 10SM CLR 22/06 A3022 RMK AO2 T02210058

Time: 10:36 (15:36 UTC)


TAF: missing

Weather observations and forecasts of more than 4000 airports (METAR and TAF reports).

The available stations are represented by yellow and red dots on the map.

Hover mouse over dot to see the name of the station.

Then click to see weather observations and forecasts.

To change the map : click on the green buttons with a black cross to zoom in, on the green button with a dash to zoom out, or on the green arrows for adjacent maps.


METAR-TAF: